Regional Weather Roundup
Issued by NWS Albany, NY

Home | Current Version | Previous Version | Text Only | Print | Product List | Glossary On
Versions: 1 2 3 4 5 6 7 8 9 10 11 12 13 14 15 16 17 18 19 20 21 22 23 24 25 26 27 28 29 30 31 32 33 34 35 36 37 38 39 40 41 42 43 44 45 46 47 48 49 50
000
ASUS41 KALY 201410
RWRALY

NEW YORK STATE HOURLY WEATHER ROUNDUP
NATIONAL WEATHER SERVICE ALBANY NY
1000 AM EDT SAT SEP 20 2014

NOTE: "FAIR" INDICATES FEW OR NO CLOUDS BELOW 12,000 FEET WITH NO
SIGNIFICANT WEATHER AND/OR NO OBSTRUCTIONS TO VISIBILITY.

NYZ032-033-038>043-046>054-057>066-NYZ062>081-201500-
EAST


CITY           SKY/WX    TMP DP  RH WIND       PRES   REMARKS
ALBANY         PTSUNNY   62  51  67 S16G22    30.23F
GLENS FALLS    CLOUDY    56  49  77 SW7       30.21F
POUGHKEEPSIE   CLOUDY    64  54  69 SW6       30.28R
NEWBURGH       PTSUNNY   61  55  82 MISG      30.30
MONTGOMERY     CLOUDY    61  53  75 CALM      30.28S
WHITE PLAINS   MOSUNNY   65  55  70 S10       30.29F
ISLIP          MOSUNNY   68  56  65 S15       30.28F
NEW YORK CITY  PTSUNNY   69  55  60 S14       30.28F
CENTRAL PARK   PTSUNNY   68  55  63 VRB5      30.31F
$$

NYZ005>009-017-018-044>046-055-056-201500-
CENTRAL


CITY           SKY/WX    TMP DP  RH WIND       PRES   REMARKS
FULTON         PTSUNNY   66  56  70 S16G23    30.09F
SYRACUSE       CLOUDY    68  57  68 S10G26    30.11F
ROME           CLOUDY    63  55  75 S14       30.16F
ELMIRA         CLOUDY    66  58  75 SW15G25   30.16F
BINGHAMTON     CLOUDY    59  55  87 S9G18     30.21F
MONTICELLO     CLOUDY    57  54  88 S7        30.29S
$$

NYZ026>034-041>043-201500-
NORTH


CITY           SKY/WX    TMP DP  RH WIND       PRES   REMARKS
WATERTOWN      CLOUDY    66  53  63 S16G31    30.06S
FORT DRUM      NOT AVBL
MASSENA        MOSUNNY   66  55  67 SW21G29   30.02F
SARANAC LAKE   CLOUDY    56  50  80 SW17G24   30.09F
PLATTSBURGH    CLOUDY    56  47  71 S18G24    30.11F
$$

NYZ001>004-010>016-019>021-201500-
WEST


CITY           SKY/WX    TMP DP  RH WIND       PRES   REMARKS
NIAGARA FALLS  PTSUNNY   68  58  70 SW20G28   30.02F
BUFFALO        PTSUNNY   69  56  62 SW23G29   30.04R
DUNKIRK        MOSUNNY   67  57  70 S21G26    30.06R
JAMESTOWN      CLOUDY    63  55  77 S13G20    30.11S
WELLSVILLE     PTSUNNY   64  55  72 S12G28    30.15F
ROCHESTER      PTSUNNY   69  57  65 SW15G25   30.06S
PENN YAN       MOSUNNY   66  56  70 S16G28    30.11F
$$

             KEY
       WCI = WIND CHILL INDEX
       VSB = VISIBILITY
       HX  = HEAT INDEX
$$



USA.gov is the U.S. government's official web portal to all federal, state and local government web resources and services.